Voltar ao catálogo

SL-8 DEB

AtivoLEO
NORAD 21181·DEBRIS·🇷🇺 Russia

Lançado Feb 12, 1991 de Plesetsk Cosmodrome

Loading…

Próximas Passagens (próximas 24 horas)

TLE

AtualizadoSource: Space-Track

Época: Sep 14, 2026, 11:12 UTC

1 21181U 91009AU  26257.46666684  .00000016  00000-0  27496-3 0  9998
2 21181  73.9448 271.4275 0204762 191.8241 322.4039 12.22671015585036

Acompanhe SL-8 DEB em tempo real com AllMySat

Download on the App Store